Harvard, Illinois, United States (60033)
Lat: 42.42N, Lon: 88.61W
Wx Zone: ILZ005
Local Info
Past Weather Observations for Today

NOTE: This archive is for the closest National Weather Service station to Harvard. Information may differ from the station used for current weather conditions.

Click here for Long-term Archive

Time Weather Temperature Dewpoint Humidity Pressure Winds Precip Visibility
06:55
Clear
Fog And Mist
63°F / 17°C 63°F / 17°C 100% 30.09 in
(1019 mb)
Calm - 4SM
06:35
Clear
Fog And Mist
61°F / 16°C 61°F / 16°C 100% 30.09 in
(1019 mb)
Calm - 2 1/2SM
06:15
Obscured
Fog And Mist
57°F / 14°C 57°F / 14°C 100% 30.09 in
(1019 mb)
Calm - 1 3/4SM
05:55
Obscured
Fog And Mist
55°F / 13°C 55°F / 13°C 100% 30.09 in
(1019 mb)
Calm - 1 1/2SM
05:35
Obscured
Fog And Mist
55°F / 13°C 54°F / 12°C 94% 30.09 in
(1019 mb)
Calm - 1SM
05:15
Obscured
Fog
52°F / 11°C 52°F / 11°C 100% 30.09 in
(1019 mb)
Calm - 1/4SM
04:55
Obscured
Fog
54°F / 12°C 54°F / 12°C 100% 30.06 in
(1018 mb)
Calm - M1/4SM
04:35
Obscured
Fog And Mist
54°F / 12°C 54°F / 12°C 100% 30.06 in
(1018 mb)
Calm - 1 1/4SM
04:15
Obscured
Fog
54°F / 12°C 52°F / 11°C 94% 30.06 in
(1018 mb)
Calm - M1/4SM
03:55
Obscured
Fog And Mist
54°F / 12°C 54°F / 12°C 100% 30.06 in
(1018 mb)
Calm - 3/4SM
03:35
Obscured
Fog And Mist
54°F / 12°C 54°F / 12°C 100% 30.06 in
(1018 mb)
Calm - 1SM
03:15
Obscured
Fog
55°F / 13°C 54°F / 12°C 94% 30.06 in
(1018 mb)
Calm - 1/2SM
02:55
Obscured
Fog
55°F / 13°C 55°F / 13°C 100% 30.06 in
(1018 mb)
Calm - 1/4SM
02:35
Obscured
Fog
54°F / 12°C 54°F / 12°C 100% 30.06 in
(1018 mb)
Calm - M1/4SM
02:15
Obscured
Fog And Mist
54°F / 12°C 54°F / 12°C 100% 30.06 in
(1018 mb)
Calm - 3/4SM
01:55
Obscured
Fog
55°F / 13°C 55°F / 13°C 100% 30.06 in
(1018 mb)
Calm - 1/4SM
01:35
Obscured
Fog
55°F / 13°C 55°F / 13°C 100% 30.06 in
(1018 mb)
Calm - 1/2SM
01:15
Obscured
Fog And Mist
55°F / 13°C 55°F / 13°C 100% 30.06 in
(1018 mb)
Calm - 1 1/4SM
00:55
Obscured
Fog And Mist
57°F / 14°C 55°F / 13°C 94% 30.06 in
(1018 mb)
Calm - 1 1/2SM
00:35
Clear
Fog And Mist
55°F / 13°C 55°F / 13°C 100% 30.06 in
(1018 mb)
Calm - 4SM
00:15
Clear
Fog And Mist
57°F / 14°C 55°F / 13°C 94% 30.04 in
(1017 mb)
Calm - 2 1/2SM
Time Weather Temperature Dewpoint Humidity Pressure Winds Precip Visibility


Weather for websites

WeatherForYou.com, LLC is not responsible for any damages or problems caused by this service. Current weather conditions are obtained from the closest station including government and personal stations which may have varying degrees of accuracy. Weather forecasts are derived from the NOAA NDFD. Like all things, this site belongs to Jesus Christ... He just trusts us to maintain it. If you have any questions or comments email webmaster@weatherforyou.com

Copyright © 2015, WeatherForYou.com LLC. All rights reserved.